Location: Al �Aqabah a? ?agh?rah
(24.2365°N, 32.8809°E)
Time: 04:23:35
(UTC+00:00)

Daily predictions for brighter satellites

Satellite Brightness Start Highest point End
(mag) Time Altitude Azimuth Time Altitude Azimuth Time Altitude Azimuth
Centaur D-1AR AC-40 4.3 00:46:35 43° E 00:46:35 43° E 01:00:09 10° E
CZ-3 R/B 4.1 00:54:09 10° SW 01:32:30 55° SSE 01:41:55 10° E
ATLAS 3B R/B 3.3 01:42:54 10° S 01:48:58 50° ESE 01:55:17 10° NE
NATO 3D Rocket 4.4 01:56:14 45° SE 01:56:14 45° SE 02:00:37 10° ESE
Lacrosse 5 3.8 02:18:31 10° S 02:22:48 28° ESE 02:27:06 10° ENE
Centaur AC-102 4.5 02:28:30 30° WSW 02:30:33 38° SSW 02:35:00 10° SE
H-2A R/B 3.3 02:29:19 22° NNE 02:31:34 57° E 02:35:20 10° S
SJ 16-02 1.3 02:30:52 10° S 02:35:14 83° ESE 02:39:36 10° NNE
SJ-12 4.1 02:31:25 10° NNE 02:35:32 69° E 02:39:37 10° S
Fermi 4.0 02:37:19 56° S 02:37:19 56° S 02:41:08 10° ESE
Envisat 3.1 02:33:21 10° NNE 02:38:26 78° ESE 02:43:30 10° S
Meteor 1-26 Rocket 4.3 02:39:17 48° W 02:39:37 49° W 02:44:56 10° SSW
GPS 2-17 Rocket1 4.3 02:38:36 26° SSW 02:40:01 33° SSE 02:44:00 10° ESE
Hubble Space Telescope 3.1 02:40:45 13° SSW 02:40:45 13° SSW 02:42:10 10° S
FUSE 3.8 02:39:52 52° W 02:41:13 90° ESE 02:46:36 10° E
Delta 168 3.5 02:43:29 47° W 02:45:04 90° SSW 02:52:16 10° E
Meteor 1-31 Rocket 3.2 02:42:01 10° NNE 02:45:54 62° ESE 02:49:45 10° S
SEDSat Delta rocket 4.2 02:41:24 22° SW 02:45:56 68° SSE 02:52:12 10° ENE
SL-4 R/B 4.1 02:48:43 11° NNE 02:48:43 11° NNE 02:48:59 10° NNE
Cosmos 921 Rocket 3.7 02:53:40 36° WSW 02:53:40 36° WSW 02:57:24 10° SSW
Cosmos 1634 Rocket 4.1 02:50:07 19° NNW 02:54:22 50° W 03:00:17 10° SSW
OAO 2 Rocket 3.9 02:55:37 35° NW 02:56:56 42° NNW 03:01:49 10° NE
Stardust Del rocket 3.5 02:58:11 31° S 02:58:13 31° S 03:00:55 10° ESE
Cosmos 1500 Rocket 4.0 02:55:26 10° S 02:59:49 63° E 03:04:13 10° NNE
FALCON 9 R/B 4.4 02:46:22 24° WNW 03:03:21 61° N 03:10:47 10° E
SKYMED 2 4.2 03:00:18 10° SSE 03:04:31 55° ENE 03:08:45 10° N
Cosmos 1151 Rocket 3.6 03:09:44 25° NW 03:11:31 36° W 03:15:28 10° SSW
SL-19 R/B 4.2 03:09:21 10° SSE 03:15:00 80° WSW 03:20:34 10° NNW
YAOGAN 6 4.2 03:17:32 18° WSW 03:17:32 18° WSW 03:18:52 10° SW
MOS 1-B Rocket 4.1 03:17:20 10° S 03:23:49 57° WSW 03:29:32 10° NNW
ASTRO E2 2.9 03:22:04 20° W 03:24:34 53° NNW 03:28:27 10° ENE
CZ-4C R/B 4.0 03:24:18 10° SSE 03:27:16 41° ENE 03:30:14 10° N
Cosmos 2026 Rocket 4.4 03:27:08 10° S 03:33:27 72° E 03:39:43 10° N
Chandra Rocket (1) 3.5 03:32:33 10° WSW 03:34:04 13° SW 03:35:23 10° S
Cosmos 2195 Rocket 4.4 03:32:09 10° S 03:38:17 84° W 03:44:24 10° N
FAST Rocket 4.4 03:36:06 10° SSW 03:38:38 37° W 03:41:10 10° NNW
ATLAS 3B R/B 3.7 03:35:06 10° W 03:39:49 21° NW 03:44:40 10° N
Meteor 1-27 Rocket 3.8 03:41:06 10° NNW 03:46:49 71° W 03:52:38 10° S
NOAA 12 4.1 03:42:35 10° N 03:47:50 84° WNW 03:53:03 10° SSW
CZ-2C R/B 3.1 03:44:45 10° S 03:49:56 42° W 03:55:03 10° NNW
NOSS 3-1 (C) 4.0 03:45:14 10° S 03:50:00 52° ESE 03:55:10 10° NE
Landsat 5 3.9 03:46:48 10° S 03:51:10 52° W 03:55:32 10° NNW
ADEOS 4.1 03:47:26 10° N 03:52:11 37° WNW 03:56:56 10° SW
Cosmos 1633 Rocket 4.5 03:48:15 10° SSE 03:52:20 42° E 03:56:25 10° NNE
COSMO-SKYMED 1 3.3 03:48:39 10° SSW 03:52:32 32° W 03:56:26 10° NW
Cosmos 1340 Rocket 4.2 03:51:09 10° WSW 03:53:55 18° WNW 03:56:44 10° NNW
DELTA 4 R/B 2.7 03:53:52 10° WSW 03:56:25 55° SSE 04:03:57 10° E
Meteor 1-25 Rocket 4.5 03:51:51 10° SSW 03:57:16 48° W 04:02:38 10° N
CZ-4B R/B 4.3 03:57:14 10° ESE 03:59:13 15° ENE 04:01:12 10° NE
Cosmos 773 Rocket 4.4 03:54:57 10° NNW 03:59:47 41° W 04:04:33 10° S
